GEFSSGP_con_prob3kmehi_180.txt.gz
EHI
0 0 0 0 0 0 0 0 0 1 4 6 8 9 9 7 3 1 1 4 15 26 30 37 48 51 46 38 30 22 14 9 8 8 6 4 2 1 0 0 0 0 0 0 0 1 2 2 2
0 0 0 0 0 0 0 0 1 3 5 8 10 12 13 10 5 3 3 7 17 25 28 35 49 55 49 41 33 26 20 14 10 8 6 4 3 1 0 0 0 0 0 0 0 0 1 1 1
0 0 0 0 0 0 0 0 2 5 7 11 15 18 16 10 7 6 8 14 21 25 26 34 50 57 54 46 37 31 27 22 16 11 8 6 3 2 0 0 0 0 0 0 0 0 0 0 0
0 0 0 0 0 0 0 1 4 7 10 14 21 24 17 9 10 14 19 23 26 26 27 35 49 56 56 49 40 34 31 27 21 16 11 7 5 4 2 1 0 0 1 1 1 1 1 0 0
0 0 0 0 1 1 2 4 8 12 14 17 24 25 17 10 16 27 30 30 31 30 30 38 50 56 55 51 43 36 31 28 23 18 12 8 8 8 5 3 2 2 3 3 3 4 3 2 1
0 0 0 1 2 2 3 5 10 14 17 19 23 24 17 12 20 31 35 35 36 36 37 42 50 54 55 52 45 37 31 26 22 19 14 11 10 10 9 7 5 5 5 5 5 6 5 3 3
0 0 0 1 2 3 3 5 8 12 15 17 23 24 17 13 20 29 38 42 43 42 41 42 45 48 50 51 46 38 30 25 22 19 16 13 11 10 10 10 9 8 6 5 6 6 4 4 4
0 0 0 1 2 3 3 4 6 9 12 16 23 25 19 20 26 34 43 47 46 42 38 38 39 40 41 41 40 36 29 24 22 20 16 14 11 9 9 10 10 9 6 4 5 6 4 3 3
0 0 0 0 1 2 3 4 5 9 13 19 26 28 26 29 35 40 45 47 45 39 34 33 34 34 33 31 31 31 26 21 20 19 16 13 11 9 8 7 8 7 5 4 5 6 5 3 2
0 0 0 0 0 1 2 3 4 7 13 22 32 35 32 32 35 39 43 45 43 38 33 31 32 32 30 27 26 24 19 15 14 14 14 12 11 9 7 5 4 4 4 4 5 6 6 4 3
0 0 1 0 0 1 1 1 3 7 13 22 34 39 35 31 32 36 39 40 40 38 33 31 32 33 31 28 27 22 15 10 8 8 9 9 9 8 6 3 2 2 3 4 5 6 6 5 3
0 0 0 0 0 1 1 2 6 11 14 22 34 40 36 31 29 30 32 33 35 36 35 33 35 35 33 31 29 25 18 12 8 7 7 7 6 6 5 3 1 1 2 3 4 5 5 4 3
0 0 0 0 1 2 4 6 9 13 18 26 36 40 37 32 27 27 29 32 35 38 38 38 38 36 35 33 30 26 22 16 12 9 8 7 6 5 5 3 2 0 1 2 3 3 3 3 3
1 0 0 1 2 2 4 6 8 11 18 27 35 36 34 32 28 28 32 37 41 44 43 42 40 37 35 33 29 25 21 19 15 12 10 8 7 6 4 2 1 0 0 1 1 2 2 2 2
1 0 0 1 2 1 2 5 6 9 16 24 29 29 28 28 30 33 36 39 44 48 46 44 43 40 36 33 28 24 20 19 17 14 11 10 10 7 4 1 0 0 0 0 0 1 1 1 1
1 0 0 1 2 1 1 3 6 11 17 21 23 23 23 25 30 35 37 38 44 49 48 45 45 42 37 32 26 22 19 18 17 15 13 12 11 8 4 2 1 1 0 0 0 0 0 0 0
0 0 0 1 2 2 2 3 5 13 20 22 22 21 21 24 27 30 34 38 43 47 48 45 43 41 37 31 25 20 18 16 16 15 13 11 9 8 5 4 3 1 0 0 0 0 0 0 0
0 0 0 0 1 2 3 3 6 15 22 23 22 21 21 23 24 26 31 37 41 45 47 45 41 38 36 32 26 21 17 15 15 15 12 10 10 9 7 5 3 1 0 0 0 0 0 0 0
0 0 0 0 0 1 2 4 8 14 20 21 19 19 20 21 21 24 31 36 37 40 42 40 36 35 35 34 29 23 16 12 12 12 11 10 11 10 7 4 3 1 0 0 0 0 0 0 0
0 0 0 0 0 0 1 4 8 13 16 16 16 17 17 15 16 22 29 33 33 31 32 31 29 31 33 32 28 21 14 9 9 9 9 9 10 9 7 4 3 2 1 0 0 0 0 0 0
0 0 0 0 0 0 1 3 7 11 13 12 12 12 11 9 11 18 26 29 28 25 24 23 22 24 26 26 23 18 12 8 7 6 7 9 9 8 7 5 4 2 1 0 0 0 0 0 0
0 0 0 0 0 0 1 2 4 8 9 8 6 6 6 7 8 14 20 24 23 20 19 19 19 19 19 19 19 16 12 9 7 7 8 9 9 8 7 5 3 1 0 0 0 0 0 0 0
0 0 0 0 0 0 0 1 2 4 5 3 2 3 4 4 5 7 13 17 17 15 14 15 17 17 15 15 16 15 13 11 9 8 8 9 9 7 6 4 2 0 0 0 0 0 0 0 0
0 0 0 0 0 0 0 0 1 2 2 1 1 2 2 2 3 4 7 11 11 10 9 10 13 14 13 13 14 14 13 12 11 10 10 9 9 7 5 3 1 0 0 0 0 0 0 0 0
0 0 0 0 0 0 0 0 0 1 1 0 1 1 1 2 3 2 3 6 8 9 8 9 11 12 12 12 12 13 13 13 13 12 10 10 9 7 4 3 2 1 0 0 0 0 0 0 0
0 0 0 0 0 0 0 0 0 0 1 1 1 1 0 1 2 2 2 5 8 10 10 10 11 11 11 11 11 11 12 12 12 11 9 8 8 7 4 3 2 1 0 0 0 0 0 0 0
0 0 0 0 0 0 0 0 0 0 1 2 2 2 1 1 2 3 5 6 8 9 9 9 8 9 9 9 9 10 10 11 11 10 8 7 7 6 4 3 2 1 0 0 0 0 0 0 0
0 0 0 0 0 0 0 0 0 0 1 1 2 2 1 1 3 5 6 6 6 6 6 6 5 5 6 6 7 8 9 9 9 8 7 6 6 5 3 2 1 0 0 0 0 0 0 0 0
0 0 0 0 0 0 0 0 0 0 0 0 1 1 1 1 3 4 5 4 3 3 4 4 3 3 3 4 4 5 6 7 8 7 6 5 5 4 2 1 0 0 0 0 0 0 0 0 0
0 0 0 0 0 0 0 0 0 0 0 0 1 2 2 1 2 3 3 2 1 1 2 3 3 2 2 3 3 4 4 5 6 5 4 4 4 3 2 0 0 0 0 0 0 0 0 0 0

GEFSSGP_con_prob3kmehi_186.txt.gz
EHI
0 0 0 0 0 0 0 0 1 2 3 3 3 3 3 2 0 0 1 3 7 13 18 25 32 35 38 45 52 54 51 48 47 47 46 43 37 33 31 28 24 20 17 14 11 8 6 4 3
0 0 0 0 0 0 0 0 1 2 2 2 3 4 4 2 0 0 1 4 11 18 21 26 36 40 41 46 52 53 51 48 46 45 44 40 34 30 27 24 21 18 15 13 10 9 8 6 5
0 0 0 0 0 0 0 0 0 1 2 2 4 5 4 2 0 0 1 5 14 21 21 28 42 48 47 49 52 52 51 50 46 43 40 35 29 24 22 20 17 15 14 13 11 10 9 8 7
0 0 0 0 0 0 0 0 1 1 2 3 3 4 3 1 0 0 3 9 18 22 20 29 46 54 54 54 54 53 53 51 46 40 35 31 26 22 20 17 13 12 13 13 12 10 10 9 8
0 0 0 0 0 1 1 1 2 3 3 3 3 4 3 2 2 3 6 14 21 23 22 31 48 57 59 59 57 55 54 52 47 40 34 29 26 24 20 16 11 10 11 12 11 10 9 9 8
0 0 0 0 1 2 2 2 3 3 3 3 5 5 4 4 6 7 9 14 21 25 26 31 44 53 57 60 60 56 54 52 48 41 34 29 27 26 23 17 12 10 9 8 8 8 8 6 5
0 0 0 0 1 2 2 2 2 4 4 4 6 7 7 8 12 14 15 17 22 26 27 30 37 42 46 52 55 55 52 49 45 39 33 28 26 25 24 20 15 12 9 6 5 5 5 4 3
0 0 0 0 1 1 1 1 2 4 5 6 9 10 10 15 23 27 25 24 25 26 25 28 30 31 32 37 44 46 45 42 39 35 30 26 23 22 22 20 17 15 11 7 5 5 5 4 3
0 0 0 0 0 0 0 1 2 4 6 9 12 14 18 26 35 38 35 31 29 27 25 25 27 26 25 27 32 34 35 34 33 30 27 23 19 17 17 16 15 15 13 10 8 7 7 6 6
0 0 0 0 0 0 1 2 3 4 7 9 13 18 26 34 39 39 37 35 31 28 25 23 24 25 25 25 25 27 28 28 27 25 23 20 16 13 13 12 12 12 13 13 10 8 7 8 8
0 0 0 0 0 0 1 2 3 4 5 6 11 21 30 34 34 32 32 32 32 30 26 23 23 25 26 25 25 25 26 26 24 22 21 19 15 12 10 9 9 9 11 11 10 9 8 8 8
0 0 0 0 0 0 0 1 2 3 2 3 11 23 31 31 27 24 24 27 30 31 29 26 26 27 26 26 25 25 26 25 23 21 21 20 17 13 9 6 6 5 5 7 7 8 8 8 6
0 0 0 0 0 0 1 1 1 2 3 5 11 20 28 27 23 19 19 23 26 29 29 28 28 27 25 23 22 23 24 23 21 20 21 20 18 13 8 5 3 2 2 2 3 3 4 4 4
0 0 0 0 0 1 2 1 1 3 6 8 11 15 21 23 20 18 19 21 23 24 25 25 25 24 22 21 20 20 22 22 21 20 20 19 16 12 8 5 2 1 0 0 0 1 1 1 1
0 0 0 0 0 0 1 0 0 3 6 9 10 11 15 18 19 20 22 24 22 21 20 20 20 20 19 19 19 18 20 20 19 19 19 18 14 10 5 3 2 1 0 0 0 0 0 0 0
0 0 0 0 0 0 0 0 0 2 5 8 9 9 11 14 15 17 22 25 23 20 19 18 17 16 15 16 17 18 17 17 15 15 15 14 11 6 2 1 1 1 0 0 0 0 0 0 0
0 0 0 0 0 0 0 0 0 1 4 7 8 9 10 11 10 11 16 20 22 21 20 19 18 14 11 12 14 14 13 11 10 10 10 8 7 4 1 0 0 0 0 0 0 0 0 0 0
0 0 0 0 0 1 0 0 1 2 4 7 8 8 9 9 8 8 10 15 19 20 19 18 17 14 11 11 11 11 9 6 4 5 5 4 2 1 0 0 0 0 1 1 0 0 0 1 1
0 0 0 0 0 0 0 0 1 3 5 7 7 7 7 7 6 6 8 11 15 17 16 15 15 15 14 14 12 10 8 4 2 1 2 1 1 1 1 1 1 1 1 1 1 0 0 0 0
0 0 0 0 0 0 1 1 1 2 5 5 4 4 4 3 3 3 4 6 9 12 14 14 14 15 16 15 13 11 8 5 2 0 1 2 2 2 2 2 2 2 1 1 1 1 0 0 0
0 0 0 0 0 0 1 1 0 1 3 3 2 2 1 1 1 1 1 2 4 8 11 12 13 14 14 13 11 10 8 4 1 0 1 2 3 3 3 3 2 1 0 0 0 0 0 0 0
0 0 0 0 0 0 1 1 0 0 1 2 2 1 0 0 0 0 0 0 1 3 7 9 10 10 10 10 9 9 8 5 1 0 1 2 2 2 3 3 2 0 0 0 0 0 0 0 0
0 0 0 0 0 0 0 0 0 0 0 1 2 1 0 0 0 0 1 1 0 1 4 6 7 7 7 7 7 9 9 5 2 1 0 1 1 1 2 3 2 1 0 0 0 0 0 0 0
0 0 0 0 0 0 0 0 0 0 0 0 1 1 0 0 0 1 2 2 1 1 2 5 6 6 6 5 5 7 7 5 3 1 0 0 0 0 1 2 3 2 1 1 0 0 0 0 0
0 0 0 0 0 0 0 0 0 0 0 0 0 0 0 0 0 1 2 2 1 1 1 2 5 5 4 3 3 4 4 4 3 1 0 0 0 0 0 1 3 3 3 2 1 0 0 0 0
0 0 0 0 0 0 0 0 0 0 0 0 0 0 0 0 0 0 1 2 2 1 1 1 3 4 3 3 3 3 3 3 4 3 1 1 1 1 0 1 2 3 3 2 1 0 0 0 0
0 0 0 0 0 0 0 0 0 0 0 0 0 0 0 0 0 0 1 2 2 1 1 1 2 3 3 3 3 3 3 4 4 4 2 1 2 1 1 1 2 2 2 1 0 0 0 0 0
0 0 0 0 0 0 0 0 0 0 0 0 0 0 0 0 0 0 0 1 1 0 0 1 1 3 3 3 3 3 3 3 3 2 1 1 1 1 1 2 1 1 1 0 0 0 0 0 0
0 0 0 0 0 0 0 0 0 0 0 0 0 0 0 0 0 0 0 0 0 0 0 0 1 2 3 3 3 3 2 1 1 1 0 0 0 0 1 2 2 1 0 0 0 0 0 0 0
0 0 0 0 0 0 0 0 0 0 0 0 0 0 0 0 0 0 0 0 0 0 0 0 0 1 3 3 3 3 1 0 0 0 0 0 0 0 0 1 2 1 0 0 0 0 0 0 0

GEFSSGP_con_prob3kmehi_192.txt.gz
EHI
0 0 0 0 0 0 0 0 1 1 1 2 1 0 0 1 0 0 1 2 7 22 40 46 44 35 24 21 28 36 41 43 45 48 48 45 41 36 29 23 17 13 11 9 7 5 5 5 6
0 0 0 0 0 0 0 1 2 1 2 2 1 1 1 1 1 0 1 3 8 20 34 43 44 37 28 25 30 35 38 39 42 44 45 44 41 36 30 25 21 17 13 9 7 5 5 5 5
0 0 0 0 0 0 1 2 2 2 1 1 1 1 2 2 1 1 2 4 7 14 27 41 46 41 35 33 35 36 36 37 38 39 40 39 37 33 29 26 24 22 17 12 8 6 4 4 4
0 0 0 0 0 1 2 2 1 1 0 0 0 1 3 2 1 1 3 4 6 11 24 41 48 46 44 43 43 42 40 39 38 36 36 36 33 29 26 25 25 23 19 14 10 7 5 5 5
0 0 0 0 1 3 3 2 1 0 0 0 1 2 4 4 3 2 3 5 9 14 24 38 47 49 48 48 49 48 46 43 39 35 33 32 31 28 26 25 24 21 17 14 11 8 7 7 7
0 0 0 0 1 4 4 3 1 1 1 1 1 3 5 7 9 7 7 11 15 19 27 36 44 46 47 48 48 48 47 45 40 34 30 28 27 27 26 25 23 18 14 12 12 10 9 10 11
0 0 0 0 1 2 3 2 1 1 2 2 2 4 7 12 17 18 18 20 23 25 29 34 37 39 42 44 45 44 43 42 39 34 29 25 22 22 23 23 21 16 13 11 11 11 11 12 13
0 0 0 0 0 1 1 1 0 1 3 4 4 6 10 17 24 27 27 28 30 31 31 31 31 32 33 36 40 41 40 39 37 34 31 25 19 16 17 18 17 15 12 11 11 10 10 11 11
0 0 0 0 1 1 1 0 0 1 4 5 6 7 11 20 27 30 30 33 35 34 32 30 29 28 26 27 31 33 34 34 31 30 31 26 17 12 11 13 15 14 11 10 10 9 9 9 9
0 0 0 0 1 2 1 0 0 1 3 4 6 8 11 18 25 28 30 33 34 34 32 30 29 27 24 22 25 27 25 25 23 24 27 26 19 14 11 14 16 13 9 9 9 10 9 9 10
0 0 0 0 1 1 1 1 1 2 2 3 5 8 11 15 19 22 25 28 29 30 31 30 29 27 25 23 26 26 24 22 20 20 24 27 25 21 18 18 17 13 10 10 11 11 10 10 11
0 0 0 0 0 1 2 3 3 2 2 2 5 10 12 13 16 20 23 23 24 27 31 31 31 32 31 30 29 28 27 25 23 22 24 27 29 26 22 21 18 15 12 11 12 11 10 9 9
0 0 0 0 0 1 2 3 3 1 1 2 6 11 15 17 19 22 23 22 23 27 30 32 34 37 39 39 35 30 27 25 25 25 26 26 27 26 23 21 19 15 11 9 9 10 10 9 8
0 0 0 0 0 1 2 2 1 0 0 2 6 11 15 18 21 23 23 22 24 26 29 33 34 36 39 42 38 31 27 25 24 24 24 23 24 25 23 21 19 15 9 7 6 7 9 9 7
0 0 0 0 0 0 1 1 1 1 1 3 6 9 11 14 16 18 19 19 20 24 29 32 32 31 33 36 34 29 26 25 24 23 21 20 21 22 22 21 19 15 10 9 8 8 8 7 6
0 0 0 0 0 0 0 2 3 3 2 4 7 9 8 8 9 11 11 12 14 19 27 31 30 28 29 30 29 25 24 24 23 22 21 19 18 19 19 18 17 14 12 11 11 9 8 7 7
0 0 0 0 0 0 1 3 4 4 3 4 7 9 8 8 8 8 7 7 9 15 23 27 28 27 27 27 25 23 22 22 21 21 20 18 16 16 16 14 13 12 11 10 10 10 10 10 10
0 0 1 1 1 1 3 4 3 2 3 4 6 7 9 10 10 9 8 8 10 14 18 21 25 26 26 26 25 24 22 21 20 19 18 16 13 13 12 11 10 10 10 9 10 11 11 10 10
0 0 1 1 1 2 3 4 2 1 2 4 6 8 9 10 10 7 5 8 11 12 13 16 21 24 25 26 27 25 22 19 17 17 16 13 11 10 10 9 10 11 11 10 10 11 10 7 7
0 0 0 0 0 1 2 2 1 0 1 3 6 8 8 8 7 4 3 7 11 11 11 13 17 20 22 25 26 25 21 17 14 14 13 11 9 9 8 8 9 11 11 10 10 10 8 5 4
0 0 0 0 0 0 0 0 0 0 0 1 3 4 4 5 4 3 4 7 10 11 11 12 14 16 18 22 24 24 21 17 14 13 13 10 7 7 7 7 8 9 9 9 10 9 7 5 4
0 0 0 0 0 0 0 1 1 1 0 0 1 1 1 2 3 4 6 7 8 10 11 12 13 15 16 19 21 22 21 18 15 15 14 10 6 5 5 6 8 8 8 7 7 7 7 6 5
0 0 0 0 0 0 0 1 2 2 1 0 0 0 0 1 3 5 7 6 5 8 10 12 12 13 15 16 19 20 18 16 15 16 16 12 7 4 3 5 7 8 7 7 5 6 7 7 6
0 0 0 0 0 0 0 1 3 4 1 0 0 0 0 1 2 4 5 5 4 5 8 10 10 10 11 14 16 17 15 14 15 16 15 12 9 6 4 4 5 6 7 6 5 6 7 7 5
0 0 0 0 0 0 0 1 3 3 1 0 0 1 1 1 2 2 3 3 3 3 5 7 8 8 8 10 13 15 14 12 12 13 13 12 9 7 7 5 5 5 5 5 5 6 7 6 5
0 0 0 0 0 0 0 1 2 1 0 0 0 1 2 2 2 2 2 2 2 2 3 5 6 7 6 7 10 12 11 9 9 10 11 10 9 8 7 6 5 5 3 4 5 6 6 6 6
0 0 0 0 0 0 0 0 0 0 0 0 0 1 1 1 1 1 1 1 1 1 2 3 5 6 5 5 6 7 7 6 6 8 9 9 8 7 5 4 5 5 4 3 4 5 5 6 7
0 0 0 0 0 0 0 0 0 0 0 0 0 0 0 0 0 0 0 0 0 0 0 1 3 4 4 3 3 4 4 4 5 6 7 7 6 5 3 3 4 5 4 2 2 3 3 4 5
0 0 0 0 0 0 0 0 0 0 0 1 0 0 0 0 0 0 0 0 1 1 0 1 3 3 3 3 3 3 3 3 4 5 6 6 5 3 2 2 3 3 2 1 1 2 2 1 1
0 0 0 0 0 0 0 0 0 0 0 1 0 0 0 0 0 0 0 1 2 2 1 2 3 3 3 3 3 3 3 3 4 5 6 6 5 3 1 1 1 1 1 1 1 2 1 0 0

GEFSSGP_con_prob3kmehi_198.txt.gz
EHI
0 0 0 0 0 0 0 0 0 1 2 3 3 3 5 7 9 9 9 22 45 56 51 48 46 39 29 19 10 5 4 3 2 3 3 1 1 1 0 0 0 0 2 4 4 3 3 2 1
0 0 0 0 0 0 0 0 1 2 2 2 2 4 5 6 8 8 9 21 42 53 49 49 50 42 30 19 12 8 6 5 4 4 4 3 2 2 1 0 0 1 3 4 4 3 3 3 2
0 0 0 0 0 0 0 0 1 1 1 1 3 5 7 6 6 7 9 19 37 48 50 55 56 48 35 22 14 11 8 7 7 6 7 6 6 4 3 3 3 3 4 4 3 3 3 3 3
0 0 0 0 0 0 0 0 0 0 1 2 6 9 8 6 5 5 8 17 31 44 53 58 58 53 40 27 19 15 12 11 11 12 12 10 9 8 7 6 6 6 5 4 3 3 3 3 4
0 0 0 0 0 0 0 0 0 1 2 5 10 12 10 6 5 5 7 15 28 43 52 55 57 55 45 33 24 20 18 17 17 18 17 14 13 13 12 10 10 9 6 4 3 3 4 6 7
0 0 0 0 0 0 0 1 1 3 5 8 13 15 13 9 6 7 8 15 28 42 50 52 53 53 47 38 28 23 22 21 22 22 20 17 16 16 16 14 12 11 9 6 4 4 5 9 11
0 0 0 0 0 0 1 2 3 5 7 9 13 15 14 11 9 9 11 16 27 40 46 48 48 46 42 36 29 25 23 23 23 22 20 16 15 16 16 15 13 13 12 9 6 5 6 9 12
0 0 0 0 1 2 2 3 4 7 9 10 11 14 14 12 11 13 14 17 26 36 42 42 42 39 35 31 28 26 26 26 24 21 18 15 13 12 12 13 15 16 15 13 9 6 6 8 10
0 0 0 0 1 3 4 4 4 7 10 12 13 14 14 12 12 16 18 22 29 36 38 37 38 36 31 28 28 28 27 27 25 22 20 17 13 10 9 14 22 23 20 17 11 7 7 9 10
0 0 0 0 1 2 3 4 4 6 9 12 16 18 16 14 15 19 23 28 32 37 38 36 35 34 30 29 31 29 26 26 25 24 22 17 14 11 10 17 27 28 22 18 14 10 9 9 9
0 0 0 0 1 2 2 3 5 6 6 10 16 20 19 17 17 21 26 30 33 37 37 36 36 36 33 34 35 31 27 26 26 25 23 20 17 14 12 18 25 26 22 18 14 12 10 8 8
0 0 0 0 0 1 3 4 5 6 5 8 15 20 18 17 18 22 26 30 34 37 36 36 41 44 43 43 42 35 29 27 26 27 28 27 23 18 17 19 23 24 21 18 14 12 12 9 8
0 0 0 0 1 2 5 6 6 5 5 8 13 16 17 17 19 23 26 30 36 38 36 37 44 51 52 52 49 40 33 30 29 31 33 32 28 23 21 23 26 25 22 19 15 13 13 11 9
0 0 0 0 1 4 7 8 7 5 5 8 11 14 18 19 19 21 24 28 32 35 37 38 41 47 50 52 50 42 36 34 33 35 37 33 27 25 24 26 29 28 24 23 20 16 14 13 11
0 0 0 0 1 3 6 8 8 7 6 7 10 15 21 21 19 17 18 22 26 31 36 38 38 39 41 43 44 40 37 36 36 38 39 33 25 24 27 28 30 29 26 26 25 20 18 16 14
0 0 0 0 0 2 4 7 8 8 7 6 8 15 20 19 17 15 14 16 21 28 35 37 35 33 34 38 39 37 37 38 37 38 36 30 24 23 26 28 29 29 27 25 24 23 23 20 17
0 0 0 0 1 2 4 6 8 7 6 5 8 13 16 15 14 12 11 13 18 25 31 35 33 30 30 34 36 34 35 37 38 38 35 30 24 22 23 25 25 26 25 23 22 22 23 21 17
0 0 0 1 2 3 5 8 9 7 6 7 10 12 13 11 9 8 9 12 16 21 27 30 30 29 29 32 33 31 31 33 35 37 34 30 25 22 21 22 22 24 24 22 19 20 21 18 14
0 0 1 2 3 4 5 9 11 10 8 8 9 11 12 10 9 8 7 10 14 18 21 24 26 28 29 30 29 28 27 29 31 32 30 27 25 23 21 21 22 23 23 20 19 19 17 14 12
0 0 1 2 3 4 5 8 14 15 11 7 7 9 10 9 9 10 8 7 10 14 17 19 23 27 29 28 27 25 25 26 26 25 25 24 23 22 20 19 20 21 21 19 19 18 14 11 10
0 0 0 1 2 3 3 7 14 17 12 7 5 6 7 7 9 10 8 6 6 10 14 17 22 25 26 24 22 20 20 21 21 21 22 22 21 21 19 17 17 19 20 21 20 17 13 9 7
0 0 0 0 1 1 2 5 12 15 11 7 5 5 4 5 7 8 8 7 6 8 12 17 20 22 21 19 17 16 14 15 17 20 21 20 19 19 17 14 13 15 19 21 20 17 13 9 6
0 0 0 0 0 0 1 3 8 11 11 9 7 5 3 4 6 7 7 8 7 8 11 14 17 19 19 17 16 16 14 13 15 18 19 19 19 17 15 12 11 12 16 19 19 18 14 10 6
0 0 0 0 0 0 0 2 4 7 10 11 10 7 5 5 6 7 7 7 7 7 8 11 14 17 17 16 16 16 15 13 14 15 16 18 18 17 13 11 11 12 14 18 19 17 14 9 6
0 0 0 0 0 0 0 1 3 5 8 10 10 8 7 6 6 6 6 5 4 4 4 7 11 13 14 14 15 15 14 14 14 14 15 16 16 16 13 12 12 12 13 16 17 15 11 7 5
0 0 0 0 0 0 0 2 4 5 5 5 7 8 8 6 5 4 4 4 2 2 3 5 8 9 10 11 12 13 12 13 13 12 12 12 12 12 11 10 10 11 11 12 13 12 8 5 3
0 0 0 0 0 0 1 2 4 3 1 2 3 5 5 4 3 3 3 2 1 1 2 4 6 6 7 7 9 9 9 9 9 10 10 9 8 8 8 8 9 9 8 9 10 9 7 5 2
0 0 0 0 0 0 1 2 2 1 0 1 1 2 3 4 3 3 2 1 0 1 2 3 3 3 4 5 5 5 5 6 6 7 7 7 6 6 6 7 8 6 6 7 7 6 5 4 2
0 0 0 0 0 0 0 1 1 1 0 0 0 1 3 4 2 2 2 1 1 1 1 2 2 2 3 4 3 3 4 6 6 5 5 6 6 5 5 6 5 4 3 4 4 4 4 3 2
0 0 0 0 0 0 0 1 2 1 0 0 0 1 2 2 1 1 2 1 2 2 1 1 2 2 4 4 3 3 5 6 6 4 4 5 6 5 5 4 2 1 1 2 3 3 3 3 3

GEFSSGP_con_prob3kmehi_204.txt.gz
EHI
0 0 0 0 0 0 0 0 1 3 3 4 6 9 9 9 6 4 3 7 12 14 18 32 43 42 37 32 29 28 26 23 22 20 19 18 16 14 12 9 6 4 2 2 1 0 1 1 1
0 0 0 0 0 0 0 1 2 2 3 4 7 9 10 9 6 4 5 10 17 18 21 31 43 44 38 34 31 29 27 25 23 21 20 17 14 13 11 9 7 4 2 1 0 0 1 2 2
0 0 0 0 0 0 0 1 1 1 2 4 8 11 11 8 5 5 9 17 22 22 23 32 44 47 42 38 35 31 28 26 24 21 19 16 15 14 13 9 5 3 1 0 0 0 1 1 1
0 0 0 0 0 0 0 0 0 1 3 6 9 12 12 9 6 9 17 25 27 24 22 31 44 49 47 43 39 33 29 26 25 23 19 17 18 18 16 9 4 2 1 1 0 1 1 1 1
0 0 0 0 0 0 0 0 2 3 6 9 11 13 13 10 10 16 24 30 31 26 22 30 43 49 48 45 40 35 30 28 26 23 20 18 19 19 15 10 5 3 2 2 1 1 2 3 3
0 0 0 0 0 0 0 1 4 8 10 11 13 14 12 12 15 22 28 31 31 27 23 30 40 44 44 42 38 35 33 30 26 22 20 18 17 16 14 12 9 7 5 4 4 3 3 5 6
0 0 0 0 0 0 0 1 4 10 12 14 15 13 11 13 18 25 30 30 28 25 24 28 33 35 37 37 34 33 33 30 26 22 19 17 15 15 15 14 13 10 8 7 7 6 5 6 8
0 0 0 0 0 0 1 1 3 7 12 14 15 12 10 15 24 31 34 31 26 23 22 25 28 30 30 29 28 28 30 30 25 22 21 18 14 13 14 14 13 11 8 8 9 9 8 8 8
0 0 0 0 1 1 2 2 2 6 11 14 15 13 13 20 31 38 36 30 25 21 19 21 25 27 27 25 24 26 28 27 22 18 19 16 11 10 9 10 10 9 7 8 9 10 10 9 7
0 0 0 1 2 3 3 2 3 7 12 15 16 17 18 24 32 36 33 27 21 16 13 15 19 23 25 25 25 26 26 24 18 14 13 12 9 7 6 7 7 7 6 7 8 9 9 8 7
0 0 1 2 3 3 3 3 4 7 11 15 18 19 21 24 26 28 27 24 19 14 10 10 13 17 20 22 25 26 24 20 16 12 11 12 10 9 7 6 6 6 6 5 5 6 7 6 5
0 0 2 4 4 3 3 5 6 7 11 16 18 20 22 24 23 23 23 22 20 16 12 10 11 12 14 18 22 22 20 18 15 13 13 13 11 10 8 7 6 5 5 4 4 4 5 4 3
0 1 4 5 4 4 5 6 7 9 14 18 18 18 21 22 22 22 22 22 20 18 15 13 12 11 11 15 17 16 15 15 14 14 13 11 9 8 7 5 4 4 4 5 5 4 3 3 2
0 1 3 4 4 6 8 8 8 11 16 18 17 16 17 18 18 19 20 20 19 16 15 15 13 11 10 13 14 12 10 10 10 11 10 8 7 6 5 4 4 4 5 5 4 3 3 2 2
0 0 1 2 4 6 8 8 8 11 16 17 16 15 14 15 16 16 16 17 17 15 14 14 12 10 10 12 13 11 8 6 6 6 7 5 5 6 6 5 4 5 6 6 5 3 2 1 1
0 0 0 1 2 3 4 5 5 10 15 17 16 15 14 13 14 14 14 16 16 15 14 12 10 9 10 12 13 11 8 6 5 4 4 3 5 7 7 5 4 4 6 7 7 4 2 0 0
0 0 0 0 0 1 2 3 4 9 13 14 14 13 12 11 11 12 13 14 14 14 13 11 9 9 10 13 14 13 10 8 6 5 5 5 6 8 7 4 3 4 6 7 6 4 2 0 0
0 0 0 0 0 0 1 3 5 8 9 10 11 11 10 9 8 9 9 9 10 11 11 10 9 9 10 12 14 14 12 9 7 6 8 8 8 7 6 4 3 4 5 5 3 2 1 1 0
0 0 0 0 0 0 1 2 4 6 6 6 7 8 6 5 5 6 6 6 7 9 9 8 8 8 8 10 12 13 13 10 7 7 8 9 9 7 4 3 3 4 5 3 2 1 0 1 1
0 0 0 0 0 0 1 2 3 4 2 2 3 5 4 2 2 3 3 5 6 7 7 6 4 5 5 7 10 12 12 9 6 6 5 5 6 6 3 1 1 3 3 2 2 1 0 0 0
0 0 0 0 0 0 1 1 2 2 1 1 2 3 2 1 2 2 2 3 5 5 4 3 2 2 4 7 9 10 8 7 5 4 3 2 3 3 2 1 1 2 2 2 1 0 0 0 0
0 0 0 0 0 0 0 0 0 1 1 1 2 3 2 1 2 3 3 3 4 3 2 1 0 1 3 6 8 8 6 4 4 3 3 2 2 2 2 2 3 4 4 3 2 1 0 0 0
0 0 0 0 0 0 0 0 0 1 1 1 2 3 2 2 3 3 3 3 3 2 1 0 0 1 2 4 5 5 3 3 3 3 2 3 4 3 3 4 5 6 6 4 3 2 1 1 0
0 0 0 0 0 0 0 0 0 1 0 0 2 3 3 3 3 3 3 2 2 1 1 1 1 1 1 1 2 1 1 1 2 2 2 3 5 5 5 5 5 5 5 5 3 2 2 2 1
0 0 0 0 0 0 0 0 0 0 0 0 1 2 3 3 3 2 1 1 1 1 1 1 0 0 0 1 0 0 0 0 1 1 1 2 4 5 4 4 3 3 4 4 3 3 3 2 1
0 0 0 0 0 0 0 0 0 0 0 0 0 1 1 2 3 2 0 0 1 2 1 0 0 0 0 0 0 0 0 0 0 0 0 1 2 3 2 1 1 1 2 3 3 3 3 2 1
0 0 0 0 0 0 0 0 0 0 0 1 0 0 0 1 2 1 0 0 1 2 1 0 0 0 0 0 0 0 0 0 0 0 0 0 2 2 1 0 0 0 1 2 3 3 3 2 1
0 0 0 0 0 0 0 0 0 0 0 0 0 0 0 0 1 1 0 0 0 0 0 0 0 0 0 0 0 0 0 0 0 0 0 1 2 2 1 0 0 0 0 1 2 2 2 1 0
0 0 0 0 0 0 0 0 0 0 0 0 0 0 0 0 0 0 0 0 0 0 0 0 0 0 0 0 0 0 0 0 0 0 0 1 2 3 2 1 0 0 0 0 1 1 1 0 0
0 0 0 0 0 0 0 0 0 0 0 0 0 0 0 0 0 0 0 0 0 0 0 0 0 0 0 0 0 0 0 0 0 0 0 1 2 3 2 1 0 0 0 0 0 0 0 0 0

GEFSSGP_con_prob3kmehi_210.txt.gz
EHI
0 0 0 0 0 0 0 0 0 0 0 1 3 4 4 3 2 2 1 3 8 14 21 26 30 33 38 41 42 45 49 53 55 53 48 40 34 27 22 20 18 13 11 7 2 1 2 3 3
0 0 0 0 0 0 0 0 0 0 0 1 3 4 3 2 1 1 2 5 11 16 19 22 27 31 36 40 42 44 48 53 55 52 47 39 32 27 22 19 16 12 9 6 2 0 1 2 1
0 0 0 0 0 0 0 0 0 0 1 2 4 3 2 0 0 1 4 10 16 19 19 21 27 32 36 38 40 41 45 49 50 48 43 37 31 26 21 17 14 11 7 4 2 1 2 1 1
0 0 0 0 0 0 0 0 0 0 1 3 4 3 1 0 1 4 10 17 21 21 19 22 30 36 37 37 37 38 41 42 41 40 39 35 29 24 18 14 11 9 7 6 4 3 3 2 1
0 0 0 0 0 0 0 0 1 1 2 4 5 4 2 1 3 9 14 19 22 21 18 21 28 34 34 33 34 36 37 36 33 33 34 32 27 21 16 13 10 8 7 7 6 4 3 3 1
0 0 0 0 0 0 0 1 2 2 3 4 6 6 4 3 6 11 15 18 20 21 19 18 21 25 26 28 31 32 32 33 30 27 27 25 22 17 14 13 10 7 6 6 5 4 4 4 3
0 0 0 0 0 0 0 1 2 2 1 2 5 6 4 5 9 13 16 18 20 21 20 17 16 17 20 24 27 27 27 28 26 22 19 17 14 13 12 11 8 6 6 5 5 6 7 7 6
0 0 0 0 0 0 0 1 2 2 1 1 3 4 6 10 16 19 19 20 21 21 19 16 15 15 17 18 20 22 23 23 22 17 14 12 11 10 9 8 6 4 4 5 5 6 7 8 8
0 0 0 0 0 0 0 2 3 2 1 1 3 6 11 18 23 24 23 21 19 18 17 15 15 15 15 14 15 18 20 21 20 16 12 11 11 10 8 7 5 4 2 2 2 3 4 5 6
0 0 0 0 0 0 1 2 3 2 1 1 3 9 16 23 26 25 22 20 17 15 15 15 16 16 15 15 15 17 18 19 17 15 13 12 11 10 8 7 5 4 3 2 1 2 3 4 4
0 0 0 0 0 1 1 2 3 2 1 1 5 11 18 24 24 21 18 16 14 13 14 15 16 15 14 15 15 15 17 16 15 13 13 12 12 10 9 7 5 5 4 3 3 3 4 5 5
0 0 0 0 0 1 3 3 4 3 2 3 7 12 18 21 19 14 12 11 11 12 13 13 13 12 11 12 11 12 14 15 14 12 11 10 11 11 9 7 6 5 4 4 4 5 5 5 5
0 0 0 0 1 2 3 4 4 4 5 5 9 14 18 18 13 8 6 6 8 10 10 10 9 8 9 9 8 8 10 12 12 10 8 7 8 9 9 8 6 4 3 4 4 4 4 3 3
0 0 0 0 1 2 3 3 3 4 6 8 10 14 17 16 11 6 4 4 6 7 7 7 7 6 7 7 7 6 7 8 9 8 7 6 6 6 7 7 5 3 3 3 3 3 2 2 2
0 0 0 0 0 1 2 2 2 3 6 8 10 12 14 13 10 6 4 5 6 6 6 6 6 6 5 5 5 5 4 4 5 6 7 6 4 5 6 6 4 2 2 2 2 1 1 1 2
0 0 0 0 0 0 1 1 2 3 6 7 9 11 12 11 8 5 5 6 6 7 7 6 6 5 3 3 3 4 3 3 4 4 4 4 4 4 5 5 3 2 1 1 1 1 1 0 1
0 0 0 0 0 0 0 1 2 4 6 7 7 10 10 9 6 4 5 6 6 7 6 5 5 4 2 1 1 2 3 3 3 3 3 3 3 3 4 3 2 1 1 1 2 2 2 1 0
0 0 0 0 0 0 0 0 1 3 6 6 6 7 7 6 4 3 3 4 5 6 4 4 4 3 1 0 0 1 1 2 2 3 3 3 3 3 2 1 1 2 2 1 1 2 2 1 0
0 0 0 0 0 0 0 0 0 2 3 3 4 5 5 4 3 3 3 4 4 3 2 2 2 1 1 1 1 0 0 1 1 1 3 3 3 2 1 1 1 1 1 1 0 1 1 0 0
0 0 0 0 0 0 0 0 0 0 1 1 2 4 4 3 3 3 4 4 3 1 1 1 1 0 1 1 1 0 0 0 0 1 2 3 3 2 1 1 1 1 0 0 0 0 0 0 0
0 0 0 0 0 0 0 0 0 0 0 0 1 2 3 4 3 3 3 3 2 1 1 1 0 0 0 1 1 0 0 0 0 0 1 2 2 1 0 0 1 1 1 0 0 0 0 0 0
0 0 0 0 0 0 0 0 0 0 0 0 0 2 3 3 3 3 3 3 2 2 1 1 0 0 0 0 0 0 0 0 0 0 0 1 1 1 0 0 0 1 1 0 0 0 0 0 0
0 0 0 0 0 0 0 0 0 0 0 0 1 2 3 3 3 3 3 3 3 2 0 0 0 0 0 0 0 0 0 0 0 0 0 0 0 0 0 0 0 0 0 0 0 0 0 0 0
0 0 0 0 0 0 0 0 0 0 0 0 1 2 3 3 3 3 3 3 3 2 0 0 0 0 0 0 0 0 0 0 0 0 0 0 0 0 0 0 0 0 0 0 0 0 0 1 1
0 0 0 0 0 0 0 0 0 0 0 0 1 2 3 3 3 3 3 3 3 1 0 0 0 0 0 0 0 0 0 0 0 0 0 0 0 0 0 0 0 0 0 0 0 0 0 0 0
0 0 0 0 0 0 0 0 0 0 0 0 1 2 3 3 3 3 3 3 2 1 0 0 0 0 0 0 0 0 0 0 0 0 0 0 0 0 0 0 0 0 0 0 0 0 0 0 0
0 0 0 0 0 0 0 0 0 0 0 0 1 2 3 3 3 3 2 1 1 0 0 0 0 0 0 0 0 0 0 0 0 0 0 0 0 0 0 0 0 0 0 0 0 0 0 0 0
0 0 0 0 0 0 0 0 0 0 0 0 1 2 2 2 2 1 1 0 0 0 0 0 0 0 0 0 0 0 0 0 0 0 0 0 0 0 0 0 0 0 0 0 0 0 0 0 0
0 0 0 0 0 0 0 0 0 0 0 0 1 1 0 1 1 0 0 0 0 0 0 0 0 0 0 0 0 0 0 0 0 0 0 0 0 0 0 0 0 0 0 0 0 0 0 0 0
0 0 0 0 0 0 0 0 0 0 0 0 0 0 0 0 0 0 0 0 0 0 0 0 0 0 0 0 0 0 0 0 0 0 0 0 0 0 0 0 0 0 0 0 0 0 0 0 0

GEFSSGP_con_prob3kmehi_216.txt.gz
EHI
0 0 0 0 0 0 0 0 0 0 0 0 0 0 1 1 1 2 1 0 1 6 15 22 25 25 23 20 23 30 36 39 39 38 38 38 36 32 26 22 18 15 10 6 3 2 1 0 0
0 0 0 0 0 0 0 0 0 0 0 0 0 1 2 2 1 1 1 1 2 6 14 22 27 29 27 23 24 29 35 38 39 41 42 41 38 33 27 22 18 15 11 7 4 1 0 0 0
0 0 0 0 0 0 0 0 0 0 0 0 0 2 3 2 1 0 1 3 3 6 15 23 29 33 32 26 24 28 33 36 38 40 40 38 34 30 25 19 15 13 10 7 5 2 1 1 1
0 0 0 0 0 0 0 0 0 0 0 0 0 1 3 2 0 1 3 4 5 7 15 24 29 32 31 26 23 26 29 33 34 35 34 30 25 23 20 14 10 9 8 7 6 4 4 4 2
0 0 0 0 0 0 0 0 0 1 1 1 0 1 2 2 2 4 7 6 5 7 13 22 26 25 23 21 20 22 24 26 28 30 29 26 22 19 16 11 9 9 8 7 6 6 6 6 5
0 0 0 0 0 0 0 1 1 2 2 1 0 1 3 5 6 9 11 9 6 7 12 18 20 19 18 18 17 19 21 22 24 26 26 25 22 19 14 11 10 10 10 9 7 6 7 8 8
0 0 0 0 0 0 0 1 2 3 3 2 2 3 4 7 9 12 13 11 8 8 11 13 13 14 16 17 18 18 19 20 21 22 23 22 20 16 12 10 9 8 8 8 6 7 8 10 10
0 0 0 0 0 0 0 1 2 3 3 2 3 4 6 9 11 13 14 13 11 10 11 10 9 10 12 14 15 15 16 18 18 17 17 16 12 9 7 7 7 6 5 4 4 5 6 8 9
0 0 0 0 0 0 0 1 2 2 1 2 4 6 8 10 12 13 13 13 13 14 14 12 8 8 10 10 9 10 12 15 15 13 13 9 5 4 4 5 7 6 3 2 2 2 2 3 4
0 0 0 0 0 0 0 1 2 1 1 2 4 6 8 9 11 12 13 13 13 16 16 13 10 10 11 11 9 9 10 12 12 10 9 7 5 4 4 7 9 6 3 2 2 2 2 3 4
0 0 0 0 0 0 0 0 1 1 0 1 3 5 6 6 8 10 11 11 13 15 16 14 12 13 13 13 13 13 13 12 10 8 8 9 9 8 8 10 11 9 6 5 4 4 4 5 6
0 0 0 0 0 0 0 1 2 2 1 1 2 4 5 4 6 9 10 10 11 14 15 14 14 16 16 16 16 16 14 12 11 10 11 12 12 11 11 12 12 12 10 9 7 6 6 6 6
0 0 0 0 0 0 0 1 2 3 2 2 3 5 6 5 6 8 10 10 11 12 14 14 15 17 18 19 18 16 15 14 15 14 14 14 14 12 12 14 14 12 11 9 7 6 5 4 2
0 0 0 0 0 0 1 1 2 3 4 4 5 5 7 8 8 10 11 12 11 11 13 14 14 16 18 19 19 18 16 16 17 16 15 15 15 14 14 14 15 12 9 8 8 7 5 3 2
0 0 0 0 0 0 1 1 2 3 4 6 6 6 9 11 11 11 12 12 11 12 14 14 13 15 18 18 18 16 14 14 16 15 14 14 15 16 15 14 13 11 9 9 9 8 6 4 3
0 0 0 0 0 0 0 1 2 2 5 7 8 8 11 12 12 12 12 11 12 14 16 14 13 15 16 15 13 11 10 10 11 12 11 11 12 14 14 12 10 10 10 10 10 9 7 5 4
0 0 0 0 0 0 1 2 2 2 4 6 9 11 12 11 11 12 11 11 13 16 16 14 13 14 14 12 10 8 7 6 7 8 9 9 10 11 10 9 9 9 10 10 11 10 8 6 5
0 0 0 0 0 0 1 2 2 1 2 5 9 11 11 11 11 12 11 11 14 16 15 13 12 12 11 9 8 6 5 4 4 6 8 7 6 7 7 7 9 9 10 11 12 12 10 8 7
0 0 0 0 0 0 1 2 1 1 3 6 8 10 10 10 11 12 11 11 13 14 14 11 9 7 7 7 6 6 5 4 4 6 6 4 3 3 4 6 8 9 10 11 11 12 12 10 9
0 0 0 0 0 0 1 1 0 1 2 4 6 8 10 10 12 14 13 13 13 13 12 10 8 5 4 4 5 5 5 4 4 6 5 3 1 0 2 3 5 7 9 9 9 10 10 9 9
0 0 0 0 0 0 0 0 0 0 1 1 3 6 9 12 15 16 15 13 12 11 10 9 8 6 4 3 3 3 3 3 3 4 3 2 1 0 0 1 3 5 7 7 7 6 7 7 7
0 0 0 0 0 0 0 0 0 0 0 1 1 3 6 10 14 15 14 13 11 10 10 9 8 5 3 1 1 1 3 3 3 2 2 1 1 0 0 0 2 5 6 7 6 6 5 6 6
0 0 0 0 0 0 0 0 0 0 0 1 2 3 4 6 10 11 12 11 10 9 9 8 6 3 1 0 0 1 2 2 2 2 2 2 2 1 0 0 2 5 7 7 7 7 7 6 7
0 0 0 0 0 0 0 0 0 0 0 1 3 4 4 4 6 8 9 9 9 8 7 5 4 2 0 0 0 1 1 1 1 1 3 3 2 1 0 0 1 5 6 6 7 8 8 8 8
0 0 0 0 0 0 0 0 0 0 0 1 3 5 6 5 4 5 6 7 7 6 4 3 2 1 0 0 0 0 0 0 0 1 2 2 1 1 0 0 1 3 4 5 7 8 8 9 10
0 0 0 0 0 0 0 0 0 0 1 2 4 6 6 5 3 4 4 5 5 4 3 2 1 0 0 0 0 0 0 0 0 0 1 1 0 0 0 0 1 2 3 3 4 6 7 9 10
0 0 0 0 0 0 0 0 0 0 1 2 4 4 3 3 3 3 4 5 5 4 3 1 0 0 0 0 0 0 0 0 0 0 0 0 0 0 0 0 1 1 2 3 3 5 6 7 8
0 0 0 0 0 0 0 0 0 0 1 2 3 3 2 1 2 3 4 5 5 3 2 1 0 0 0 1 0 0 0 0 0 0 0 0 0 0 0 0 0 0 1 3 4 5 5 5 5
0 0 0 0 0 0 0 0 0 0 0 1 2 2 2 1 2 3 3 4 3 2 1 0 0 0 0 0 0 0 0 0 0 0 0 0 0 0 0 0 0 0 1 3 4 4 4 3 3
0 0 0 0 0 0 0 0 0 0 0 0 1 1 1 1 1 2 2 2 1 1 0 0 0 0 0 0 0 0 0 0 0 0 0 0 0 0 0 0 0 0 1 2 3 3 3 3 3

GEFSSGP_con_prob3kmehi_222.txt.gz
EHI
0 0 0 0 0 0 0 0 0 1 0 0 0 2 8 12 11 8 4 7 15 21 25 28 27 22 14 7 4 3 3 4 4 5 5 7 10 11 10 11 10 9 7 4 2 1 0 1 1
0 0 0 0 0 0 0 0 1 1 0 0 1 3 7 10 11 7 5 10 17 23 28 30 28 21 14 9 5 5 5 6 5 5 6 7 11 12 11 11 10 8 6 4 2 1 1 0 1
0 0 0 0 0 0 0 0 1 1 0 1 2 4 5 6 8 7 8 13 19 25 30 33 29 20 13 10 8 7 8 8 7 7 7 7 10 12 11 10 10 7 5 3 3 3 3 2 1
0 0 0 0 0 0 0 1 1 1 1 1 4 6 7 6 8 9 9 13 19 24 29 32 28 20 14 13 12 10 9 8 9 9 9 8 8 8 8 9 9 8 6 5 5 5 5 5 4
0 0 0 0 0 0 1 2 3 3 2 2 5 10 12 11 12 11 9 11 16 20 26 29 27 21 19 18 16 12 9 8 9 9 9 8 8 7 6 6 8 8 7 7 7 7 7 6 5
0 0 0 0 0 0 2 3 3 3 2 2 4 11 15 15 14 11 8 9 13 18 23 25 23 21 21 21 18 13 11 10 10 9 8 7 7 6 4 3 5 7 7 7 7 7 6 5 5
0 0 0 0 0 1 1 2 2 2 2 1 3 9 16 17 13 8 8 10 14 19 21 20 17 16 17 18 17 14 12 13 12 10 8 7 6 5 3 3 4 6 7 6 5 5 6 6 6
0 0 0 0 0 1 1 1 1 2 2 2 4 11 18 19 13 8 8 13 18 20 19 16 14 13 13 14 15 15 13 15 14 10 7 7 5 4 4 5 6 6 7 7 8 8 9 9 9
0 0 0 0 0 1 1 0 0 2 3 4 8 14 19 19 14 9 9 15 20 21 17 15 14 14 12 12 14 14 13 14 13 10 8 7 6 4 6 8 8 7 7 9 11 12 13 11 10
0 0 0 0 0 0 0 0 0 1 2 5 11 16 18 18 13 10 11 15 19 20 16 14 16 16 14 13 13 13 13 12 10 9 10 9 7 6 8 13 13 10 9 10 12 13 13 11 8
0 0 0 0 0 0 0 0 0 1 2 6 12 17 18 17 14 11 12 15 17 18 18 18 18 19 20 20 17 15 15 13 10 10 13 12 9 8 11 16 18 15 12 12 13 13 12 9 7
0 0 0 0 0 0 0 0 1 2 3 6 12 16 17 15 13 12 13 15 17 18 19 22 23 24 26 27 22 19 18 15 12 14 17 16 13 10 11 14 15 15 14 13 13 13 12 9 8
0 0 0 0 1 0 0 1 3 4 4 6 11 14 13 12 11 12 14 16 17 18 20 23 26 27 29 29 25 21 19 16 16 20 21 19 16 13 11 11 12 12 12 12 11 11 11 10 9
0 0 0 0 0 0 0 1 3 4 4 5 7 10 11 10 11 13 17 19 20 22 22 24 26 28 30 29 25 22 19 17 18 21 21 19 17 17 16 15 14 11 10 11 10 9 8 7 7
0 0 0 0 0 0 0 1 2 3 2 3 4 8 11 13 11 14 20 23 24 25 25 25 24 26 28 27 24 21 18 17 19 21 21 20 19 21 22 20 17 12 12 13 11 7 5 6 6
0 0 0 0 0 0 0 1 3 2 1 2 4 9 13 15 13 15 20 24 25 26 26 25 23 23 23 22 21 20 19 20 22 24 24 21 20 21 21 20 16 14 13 13 11 8 7 8 9
0 0 0 0 0 0 0 1 2 1 1 2 5 10 14 16 16 18 21 24 25 26 25 25 24 23 22 20 20 21 22 23 25 26 24 21 20 19 19 18 15 14 12 11 10 11 12 13 13
0 0 0 0 0 0 1 1 1 1 1 3 6 10 14 18 20 22 24 25 25 25 23 24 27 26 24 23 21 20 21 21 23 23 20 19 19 17 17 17 14 13 11 9 8 9 12 14 14
0 0 0 0 0 0 0 0 1 2 2 5 8 11 15 20 23 25 26 26 24 22 22 24 27 28 27 25 21 17 16 17 17 17 17 17 17 16 16 15 13 11 10 8 7 6 7 9 11
0 0 0 0 0 0 0 0 2 4 6 7 10 12 16 20 22 25 26 24 21 21 22 23 25 25 23 22 18 14 12 12 14 14 13 13 14 13 14 14 12 10 9 8 7 6 5 5 5
0 0 0 0 0 0 1 1 4 8 9 9 9 10 14 17 19 22 23 21 19 19 20 19 20 20 18 16 13 10 8 8 10 10 8 7 9 11 13 14 12 9 8 8 8 7 5 4 3
0 0 0 0 0 0 0 2 6 10 9 7 7 7 10 14 17 19 19 18 16 15 15 16 19 19 17 14 11 7 5 6 6 6 4 3 4 7 10 11 11 10 8 8 7 6 5 4 2
0 0 0 0 0 0 0 2 6 8 8 7 6 6 8 12 16 18 18 16 14 13 12 15 18 19 18 15 11 8 7 6 5 3 1 1 1 3 5 7 9 9 8 7 5 5 6 5 2
0 0 0 0 0 0 0 1 4 6 7 7 6 5 6 10 15 18 18 16 15 14 12 13 16 17 16 13 11 10 9 7 4 1 0 1 1 1 2 5 8 9 8 5 4 5 5 5 4
0 0 0 0 0 0 0 1 3 5 5 6 6 5 6 10 15 18 17 16 16 15 15 14 14 15 13 11 10 10 9 6 3 1 0 1 1 1 2 5 8 8 6 3 3 3 4 5 6
0 0 0 0 0 0 1 2 3 3 3 3 5 7 8 9 13 14 15 15 15 16 16 15 14 12 10 8 8 8 6 4 2 1 1 0 0 1 2 4 6 5 3 1 1 1 2 5 7
0 0 0 0 0 0 1 3 2 1 1 2 5 8 8 7 8 10 13 14 15 15 15 15 12 9 6 4 4 4 3 1 1 1 1 1 0 0 2 3 4 4 3 1 0 1 1 3 4
0 0 0 0 0 0 1 1 1 1 2 3 4 6 6 5 6 8 11 13 14 14 14 14 12 8 4 3 2 1 1 0 0 1 1 1 0 1 2 3 3 4 4 2 1 1 1 1 1
0 0 0 0 0 0 0 0 1 3 3 3 4 6 6 5 6 8 10 12 13 13 13 14 12 8 4 3 1 1 0 0 0 0 0 0 0 1 1 2 3 3 2 1 0 1 1 0 0
0 0 0 0 0 0 0 1 2 3 3 2 3 6 7 6 7 9 11 12 13 13 13 13 10 6 4 2 1 1 0 0 0 0 0 1 1 1 1 1 2 2 1 0 0 0 0 0 0